Orbital Elements at Epoch 2459200.5 (2020-Dec-17.0) TDB
Reference: JPL 15 (heliocentric ecliptic J2000)
Element | Value | Uncertainty (1-sigma) | Units |
e | .05130392118239483 | 7.6655e-08 | |
a | 5.283309025040875 | 1.1306e-07 | au |
q | 5.012254555237943 | 3.9306e-07 | au |
i | 2.71401476506114 | 4.9026e-06 | deg |
node | 134.1211643951339 | 0.00016306 | deg |
peri | 76.12369879034424 | 0.00017364 | deg |
M | 34.77112475096783 | 5.6494e-05 | deg |
tp | 2458772.076104514358 (2019-Oct-15.57610451) | 0.00069921 | TDB |
period | 4435.651808201516 12.14 | 0.00014239 3.898e-07 | d yr |
n | .0811605634451199 | 2.6053e-09 | deg/d |
Q | 5.554363494843808 | 1.1886e-07 | au |
|
| | Orbit Determination Parameters
Additional Information
|